{"data":{"norad_id":55982,"intl_designator":"2023-041B","name":"GLOBAL-19","alt_names":[],"object_type":"PAYLOAD","status":"ACTIVE","operator":null,"country":"US","launch_date":"2023-03-24","launch_site_code":"RLLB","launch_vehicle":null,"mission":null,"orbit_class":"UNKNOWN","rcs_meters":null,"size_class":null,"mass_kg":null,"dimensions":null,"purposes":[],"wikipedia_slug":null,"has_3d_model":false,"image_url":null,"decayed_at":null,"tle_current":{"epoch":"2026-09-21T07:46:43.900608Z","epoch_age_seconds":110101,"freshness":"FRESH","line1":"1 55982U 23041B   26264.32411922  .00008473  00000+0  23062-3 0  9990","line2":"2 55982  42.0028   1.1065 0008709 317.7858  42.2310 15.37669204196734","mean_motion":15.37669204,"eccentricity":0.0008709,"inclination_deg":42.0028,"raan_deg":1.1065,"arg_perigee_deg":317.7858,"mean_anomaly_deg":42.231,"bstar":0.00023062,"rev_number":19673,"period_min":93.64823046817,"perigee_km":447.05445609634,"apogee_km":458.95293696155,"semimajor_km":6831.1406965289,"source":"CELESTRAK","updated_at":"2026-09-22T09:00:25.609626Z"}}}